Weather past 2 weeks in Cayenne, French Guiana

Now
73 °F

Light rain. Mostly cloudy.


Feels Like: 70 °F
Forecast: 77 / 84 °F
Wind: No wind

Location: Cayenne / Rochambeau

Current Time: Mar 4, 2015 at 10:44:04 AM

Latest Report: Mar 4, 2015 at 10:00 AM


Visibility: 4 mi

Pressure: 29.95 "Hg

Humidity: 94%

Dew point: 72 °F

Location of CayenneLocation

Historic Weather in Cayenne — Graph

°F

Cayenne temperature yesterday

Maximum temperature yesterday: 81 °F (at 2:00 PM)
Minimum temperature yesterday: 72 °F (at 9:00 AM)
Average temperature yesterday: 75 °F

Past Weeks' High & Low Weather Summary

 TemperatureHumidityPressure
High88 °F (Mar 1, 1:30 PM)100% (Feb 19, 5:00 AM)29.98 "Hg (Feb 19, 5:00 AM)
Low72 °F (Feb 19, 4:30 AM)59% (Feb 19, 4:00 PM)29.80 "Hg (Feb 19, 4:00 PM)
Average78 °F84%29.88 "Hg
* Reported Feb 17 9:00 AM — Mar 4 9:30 AM, Cayenne, Weather by CustomWeather, © 2015

Note: Actual official high and low records may vary slightly from our data, if they occured in-between our weather recording intervals... More about our weather records

Advertising

Cayenne weather history for previous 24 hours

 ConditionsComfort  
Time TempWeatherWind HumidityBarometerVisibility
9:30 AM
Wed, Mar 4
73 °FRain. Partly sunny.No wind94%29.95 "Hg6 mi
9:00 AM73 °FRain. Fog.2 mph94%29.92 "Hg2 mi
8:30 AM73 °FHeavy rain. Fog.3 mph94%29.92 "Hg2 mi
8:00 AM73 °FRain. Partly sunny.7 mph94%29.89 "Hg4 mi
7:30 AM73 °FBroken clouds.No wind94%29.89 "HgN/A
7:00 AM73 °FLight rain. Low clouds.No wind94%29.86 "HgN/A
6:30 AM73 °FLight rain. Mostly cloudy.3 mph94%29.86 "Hg5 mi
6:00 AM73 °FPartly cloudy.2 mph94%29.86 "HgN/A
5:30 AM73 °FMostly cloudy.No wind94%29.83 "HgN/A
5:00 AM73 °FPassing clouds.1 mph94%29.83 "HgN/A
4:30 AM73 °FPassing clouds.No wind94%29.83 "HgN/A
4:00 AM73 °FPassing clouds.No wind94%29.83 "HgN/A
3:30 AM73 °FMostly cloudy.No wind94%29.83 "HgN/A
3:00 AM73 °FPartly cloudy.No wind94%29.83 "HgN/A
2:30 AM73 °FMild.1 mph100%29.86 "HgN/A
2:00 AM73 °FMild.No wind94%29.86 "HgN/A
1:30 AM73 °FMostly cloudy.No wind100%29.86 "HgN/A
1:00 AM75 °FLight rain. Partly cloudy.2 mph94%29.89 "HgN/A
12:30 AM75 °FPassing clouds.No wind89%29.89 "HgN/A
12:00 AM75 °FPassing clouds.No wind89%29.92 "HgN/A
11:30 PM
Tue, Mar 3
75 °FPassing clouds.No wind94%29.92 "HgN/A
11:00 PM75 °FMild.No wind94%29.92 "HgN/A
10:30 PM75 °FMild.No wind89%29.92 "HgN/A
10:00 PM75 °FMild.No wind94%29.92 "HgN/A
9:30 PM75 °FMild.No wind89%29.92 "HgN/A
9:00 PM75 °FMostly cloudy.No wind89%29.89 "HgN/A
8:30 PM75 °FOvercast.No wind89%29.89 "HgN/A
8:00 PM75 °FMild.3 mph89%29.86 "HgN/A
7:30 PM75 °FMostly cloudy.5 mph89%29.86 "HgN/A
7:00 PM77 °FOvercast.5 mph89%29.86 "HgN/A
6:30 PM77 °FMostly cloudy.5 mph83%29.86 "HgN/A
6:00 PM77 °FMostly cloudy.6 mph83%29.83 "HgN/A
5:30 PM79 °FLight rain. More clouds than sun.7 mph84%29.83 "HgN/A
5:00 PM79 °FBroken clouds.7 mph79%29.83 "HgN/A
4:30 PM77 °FPartly sunny.7 mph89%29.83 "HgN/A
4:00 PM75 °FMore clouds than sun.9 mph89%29.86 "HgN/A
3:30 PM75 °FLight rain. Partly sunny.16 mph89%29.86 "Hg4 mi
3:00 PM81 °FPartly sunny.12 mph74%29.86 "HgN/A
2:30 PM81 °FPartly sunny.6 mph79%29.89 "HgN/A
2:00 PM81 °FPartly sunny.6 mph79%29.89 "HgN/A
1:30 PM77 °FLight rain. Partly sunny.7 mph89%29.92 "Hg4 mi
1:00 PM79 °FPartly sunny.12 mph79%29.92 "HgN/A
12:30 PM79 °FPartly sunny.9 mph79%29.95 "HgN/A
12:00 PM79 °FPartly sunny.9 mph84%29.95 "HgN/A
11:30 AM79 °FMostly cloudy.7 mph84%29.95 "HgN/A
11:00 AM77 °FLight rain. Partly sunny.8 mph89%29.98 "HgN/A
10:30 AM75 °FLight rain. Low clouds.6 mph94%29.95 "HgN/A
10:00 AM73 °FLight rain. Partly sunny.5 mph94%29.95 "HgN/A
Weather by CustomWeather, © 2015

See weather overviewHow to use our weather pages